RH
19 19 18 16 16 16 16 16 16 15 15 14 11 10 11 12 13 13 14 12 11 10 9 8 6 6 7 14 25 69 94 100 100 100 100 100 100 100 100 100 100 100 97 85
17 18 17 18 17 16 15 16 16 15 14 13 14 14 13 12 13 14 16 16 13 12 12 11 8 7 6 7 9 25 68 89 100 100 100 100 100 100 100 100 100 100 100 99
16 16 17 17 16 16 16 15 15 15 15 15 15 14 13 13 14 14 16 17 16 14 12 12 11 8 8 6 7 8 21 47 74 100 100 100 100 100 98 100 100 100 100 100
14 14 16 18 16 16 17 17 16 15 14 14 15 16 16 15 14 15 15 18 18 16 14 13 12 11 9 10 6 7 8 20 43 72 100 100 100 100 100 99 100 100 100 100
14 14 16 19 18 16 17 16 16 16 15 15 14 14 15 15 15 16 17 17 19 18 16 15 15 14 12 10 11 7 7 7 12 23 57 100 100 100 100 100 100 89 100 100
14 14 16 18 19 18 18 17 17 17 16 14 16 15 16 17 17 16 17 18 18 19 18 16 16 15 15 12 10 10 8 7 7 10 20 46 100 100 100 100 100 100 98 100
14 15 16 18 20 21 20 19 16 16 16 16 18 16 16 17 18 18 18 18 18 20 20 16 16 17 16 14 13 11 10 8 7 7 10 20 42 100 100 100 100 100 100 100
14 15 18 19 20 21 22 20 19 18 18 21 20 15 17 21 19 18 19 19 19 19 20 18 16 16 16 16 16 14 12 11 9 8 8 9 16 44 100 100 100 100 100 100
13 14 16 19 19 20 22 22 23 21 20 19 18 15 18 21 22 21 20 19 19 19 18 19 18 16 15 17 16 16 14 13 11 10 9 9 9 14 40 98 100 100 100 100
12 13 15 17 20 21 22 25 25 23 21 20 19 19 19 21 21 21 22 21 20 19 18 18 18 18 16 16 17 17 16 14 13 12 10 10 10 10 12 29 94 100 100 100
12 12 14 15 17 21 24 25 26 25 23 21 21 21 21 21 20 21 21 22 22 20 20 20 19 17 18 17 16 17 18 17 14 13 13 11 10 10 10 12 16 78 100 100
12 13 13 13 14 16 20 24 25 26 24 23 22 24 24 22 21 21 22 21 21 21 21 21 20 18 16 17 16 15 15 17 16 14 13 12 11 10 9 10 12 14 22 79
12 13 13 14 14 14 15 19 22 23 24 23 24 24 25 24 23 22 23 23 22 21 20 20 20 20 19 17 16 15 15 14 14 15 14 13 12 12 11 10 9 11 13 16
13 13 14 15 14 14 14 15 17 21 21 22 23 24 25 24 23 22 23 23 24 23 22 20 20 20 20 19 18 16 14 14 14 14 13 12 12 11 11 11 11 10 9 11
14 12 14 15 15 15 15 16 16 16 17 17 19 21 23 24 24 24 23 22 22 23 24 23 22 21 21 20 18 17 17 15 13 13 13 13 12 12 11 11 11 11 12 11
13 12 12 13 13 13 14 15 16 17 18 17 16 17 19 20 23 25 24 24 22 22 22 22 22 21 20 20 20 19 16 16 16 13 12 13 13 13 12 11 11 10 10 10
12 11 12 11 12 12 13 13 14 14 16 18 18 17 16 17 19 21 23 25 24 22 21 20 20 20 20 18 18 18 18 16 15 15 14 12 13 13 12 12 12 12 11 11
11 10 10 11 11 12 12 13 14 15 15 15 17 18 18 17 17 17 19 20 23 24 22 21 20 20 19 19 18 18 17 17 16 15 15 14 13 13 13 13 12 12 12 12
10 10 10 10 11 11 12 12 14 16 16 16 16 16 18 19 19 18 17 17 18 19 21 22 21 19 19 19 19 18 17 17 17 16 16 15 15 14 13 13 13 12 12 12
10 10 10 10 11 11 12 12 12 14 16 16 17 17 18 20 21 21 20 19 18 17 17 17 17 17 17 18 18 19 19 18 17 16 16 15 15 15 14 14 13 12 12 12
10 11 11 11 11 12 12 12 13 13 15 16 16 16 17 17 18 20 21 21 21 20 19 17 16 16 16 16 16 17 17 17 17 17 17 16 15 16 15 14 14 13 13 13
11 11 12 12 12 13 13 14 14 14 14 15 17 16 16 16 16 17 17 19 19 19 19 20 19 19 17 16 15 14 15 15 15 15 15 15 16 15 14 14 14 14 14 14
12 13 13 14 14 15 15 16 16 16 16 15 16 17 18 17 17 17 17 18 18 18 19 19 18 18 18 19 19 17 17 17 16 15 14 13 13 13 13 13 13 13 13 14
15 15 16 17 18 18 19 18 18 18 18 19 18 18 18 17 17 16 16 17 17 16 17 18 18 18 18 18 18 18 19 18 18 17 17 16 16 15 14 14 14 14 14 14
20 21 21 22 23 23 23 22 22 22 21 20 19 19 19 18 17 15 15 16 16 16 15 15 16 17 17 18 18 18 18 18 19 18 18 18 17 16 16 16 15 15 14 14
19 19 21 22 22 21 21 21 20 19 17 16 16 18 20 21 20 18 16 16 16 15 15 15 14 14 14 15 15 16 16 17 17 17 17 17 17 17 17 16 16 15 15 13
Wind_Speed
55 57 61 65 65 69 70 75 81 86 88 89 83 79 81 81 83 86 89 96 100 107 114 120 127 135 138 137 137 143 136 130 127 127 122 118 121 117 115 111 109 110 113 112
54 58 60 62 64 67 68 70 75 82 85 87 87 86 84 82 84 87 90 93 98 101 107 116 122 127 139 139 138 138 143 137 131 129 128 123 120 121 120 119 117 113 114 115
50 57 60 61 63 66 68 70 72 77 81 87 91 90 87 85 85 85 89 90 95 100 103 111 118 123 128 141 141 140 140 141 136 130 129 127 127 127 126 123 124 118 120 118
48 55 58 61 64 65 66 69 70 73 78 83 88 89 91 89 87 87 87 90 91 95 100 105 113 120 124 129 141 141 141 139 141 140 132 132 129 130 128 129 129 126 125 124
47 51 55 59 63 65 65 68 70 72 74 79 83 85 86 87 86 87 86 88 90 94 99 104 110 117 122 128 131 140 142 141 139 140 144 137 133 131 129 129 131 129 128 125
44 49 52 58 61 63 65 68 70 72 74 74 77 81 83 87 90 90 91 91 92 92 98 103 107 113 118 123 128 133 139 142 142 142 140 141 140 133 133 133 133 132 131 132
40 45 49 54 59 61 63 68 69 71 72 68 76 80 78 82 88 90 91 91 89 92 96 102 106 108 113 119 123 127 132 137 141 144 145 141 143 143 138 137 138 134 133 135
39 43 47 52 57 61 63 66 67 69 69 70 78 77 74 78 83 88 91 92 92 92 93 100 105 108 110 113 117 121 126 132 137 141 143 145 144 144 144 140 137 138 136 137
38 41 46 50 55 60 62 64 67 69 70 73 76 71 70 75 80 84 89 91 93 94 94 97 103 107 107 110 114 117 120 126 132 136 140 142 145 146 148 146 142 135 138 137
38 40 44 48 52 56 59 62 65 69 69 70 69 71 70 76 80 84 87 90 92 93 93 95 99 104 107 109 111 114 117 120 125 130 136 140 142 145 146 148 148 146 135 139
37 39 43 47 50 53 56 60 64 68 69 69 69 68 72 77 80 82 86 89 90 90 91 93 96 100 103 106 109 111 114 117 120 124 130 136 139 143 146 147 147 151 149 136
33 36 40 44 48 51 55 58 62 66 67 69 69 69 72 73 77 81 84 87 89 90 90 92 94 96 100 104 107 110 113 114 117 119 123 128 134 137 141 147 149 150 153 156
29 31 34 39 44 48 52 57 60 63 66 67 69 69 72 74 76 78 81 84 86 88 90 92 93 94 95 98 104 107 110 113 116 118 121 123 125 130 134 139 145 150 151 152
28 28 32 36 40 43 48 53 57 60 63 65 67 70 74 76 77 78 80 82 84 86 87 89 91 93 93 94 97 101 106 109 113 116 119 122 123 123 125 130 135 139 146 152
27 27 29 32 36 39 43 47 51 55 60 64 67 70 73 76 78 79 80 82 82 83 84 86 88 90 91 92 94 98 100 104 106 110 116 120 122 123 124 125 127 129 134 139
26 27 28 31 34 37 40 43 47 50 54 59 63 68 72 74 77 80 82 83 83 83 84 85 87 89 91 92 93 94 97 100 102 104 108 113 118 122 123 123 124 125 126 129
25 27 28 31 34 36 38 40 44 47 51 54 58 62 67 71 75 78 81 84 85 85 86 87 87 88 89 91 91 93 94 97 100 102 104 107 111 116 120 121 123 124 125 125
26 28 29 32 33 35 37 39 41 44 48 51 54 58 60 64 69 74 77 80 84 87 88 89 89 90 90 90 90 92 93 94 96 100 103 105 106 109 113 117 120 122 123 124
27 28 29 31 33 35 37 39 40 42 45 48 51 54 56 60 63 66 70 75 79 82 85 87 89 90 90 91 92 93 94 94 96 97 99 102 104 107 109 112 116 119 121 124
29 28 29 30 31 34 37 38 39 41 44 46 49 52 55 56 59 62 65 68 72 75 79 82 85 87 89 90 91 93 94 95 96 97 99 100 101 104 107 110 112 115 118 120
25 25 27 28 28 31 34 35 38 39 42 45 47 50 52 55 58 59 61 64 67 69 72 75 78 82 84 86 88 90 92 94 95 97 99 100 101 102 104 106 108 110 112 115
22 23 25 26 27 29 31 33 35 38 40 42 45 48 50 52 55 58 59 62 65 67 69 72 74 76 78 81 84 86 88 89 92 95 96 97 98 100 102 103 104 106 109 111
17 19 20 22 24 26 28 31 34 36 38 40 42 44 47 50 52 54 56 59 62 64 67 70 72 74 75 77 79 81 83 85 87 90 91 93 95 97 98 100 102 103 105 107
15 17 18 20 23 25 27 31 34 36 37 39 41 43 46 49 50 52 54 57 60 61 64 67 70 72 73 76 77 79 81 82 84 85 87 88 89 90 91 92 95 96 98 101
16 16 18 20 22 24 28 29 32 35 37 39 41 43 46 49 51 53 53 56 59 60 62 65 66 69 71 74 76 78 80 81 83 84 85 86 87 88 89 90 91 92 94 96
17 18 19 21 23 25 28 30 33 34 36 38 39 42 44 47 50 52 54 56 58 59 61 63 65 66 69 72 73 75 78 80 82 83 84 85 86 87 88 89 90 90 92 91
Wind_Direction
252 249 244 244 244 243 240 237 235 236 238 238 240 240 235 232 227 228 228 228 227 227 228 227 227 228 227 228 227 229 229 226 225 229 229 231 233 234 233 234 238 243 243 245
250 245 244 242 240 240 239 238 235 235 234 236 236 237 235 233 229 227 227 228 229 229 229 228 226 226 228 228 229 227 228 229 227 226 228 230 233 234 235 234 236 238 244 246
252 247 243 241 239 238 237 236 234 233 232 233 233 233 235 234 231 228 228 229 229 229 229 229 227 225 225 228 229 230 229 230 229 225 226 229 231 234 235 236 235 235 240 243
254 245 240 239 237 236 236 236 235 234 232 232 232 231 233 232 230 229 228 227 229 231 230 229 229 227 225 225 227 229 230 229 230 229 224 227 229 232 233 235 234 236 238 241
256 247 239 235 236 236 235 236 235 234 233 232 232 232 232 233 232 230 229 228 228 230 231 230 229 230 228 227 226 225 228 230 229 230 230 225 227 230 232 232 235 235 235 238
256 248 241 235 236 235 235 235 235 234 234 232 232 231 229 230 230 230 228 227 227 228 229 231 232 231 230 230 228 227 226 228 230 230 230 231 225 227 230 232 235 235 236 238
257 249 242 237 235 235 234 235 235 235 234 232 232 230 228 229 229 230 231 230 229 229 230 230 232 233 233 232 231 230 229 227 227 230 231 230 230 227 228 231 234 235 237 238
257 247 242 237 234 233 234 235 235 235 233 230 231 229 226 229 230 230 230 231 230 229 230 232 231 233 234 233 233 232 232 231 230 228 229 231 231 230 228 229 232 235 236 239
259 250 244 239 237 234 234 235 234 234 232 231 232 233 229 230 230 231 231 231 231 232 231 230 232 233 233 234 234 234 234 233 232 232 231 230 231 231 230 229 229 233 236 238
262 252 246 242 238 236 234 234 234 235 234 233 233 232 230 231 230 230 232 232 232 233 233 231 231 232 233 234 234 235 235 234 234 234 234 233 232 232 233 231 230 229 233 237
265 254 247 242 238 236 235 235 234 234 233 232 231 231 231 231 232 231 231 232 233 233 233 232 231 231 232 234 235 234 235 236 235 235 235 235 234 234 233 234 234 232 230 231
262 255 248 244 241 238 236 234 234 234 233 233 231 230 231 232 233 233 233 233 234 234 233 233 232 232 232 233 234 235 235 235 236 237 237 237 237 236 236 235 235 236 234 236
262 256 251 247 244 241 238 236 234 234 234 233 232 230 231 232 232 233 234 234 235 235 234 234 234 233 233 234 234 235 236 236 236 237 238 239 239 238 238 238 237 236 238 238
263 258 252 248 245 242 239 237 235 235 235 234 233 231 230 231 233 233 234 235 235 236 236 235 235 235 235 235 235 236 236 236 237 238 239 240 241 241 240 239 239 240 239 239
262 257 252 249 248 244 241 240 239 237 236 235 234 232 232 232 232 234 236 237 237 237 238 238 237 237 237 237 237 236 236 237 237 237 238 239 240 242 242 242 241 241 241 242
265 258 254 251 249 247 244 242 240 239 238 237 235 234 233 233 233 233 235 237 238 239 238 239 239 239 239 239 238 238 237 237 238 238 238 239 240 241 242 243 244 244 243 243
268 263 260 256 252 250 247 245 243 241 240 239 237 236 235 235 234 234 235 236 237 239 240 240 240 240 241 241 241 240 239 238 238 238 238 238 239 240 241 242 243 244 245 245
271 267 263 260 255 252 250 247 245 243 242 241 240 239 239 238 237 237 237 237 237 238 240 241 242 242 242 242 242 242 241 240 240 239 239 239 239 240 241 242 242 244 244 245
275 270 265 259 257 252 249 248 247 245 244 243 244 243 242 241 241 240 239 238 239 239 240 241 243 243 243 243 243 243 243 243 243 241 241 240 240 240 240 241 243 243 244 245
276 272 267 262 258 253 251 249 248 247 245 244 242 242 242 243 243 241 242 242 241 241 241 240 241 242 243 243 243 243 243 244 244 244 244 242 242 242 241 241 242 243 244 245
277 271 268 264 259 254 252 251 251 251 250 249 248 247 245 244 244 242 242 242 243 243 243 243 242 241 242 243 243 244 244 244 244 245 245 245 244 244 244 243 243 243 244 245
280 274 270 267 263 259 256 255 254 253 253 253 253 251 250 249 248 247 246 245 245 245 244 244 244 245 245 244 244 244 244 244 245 245 245 245 246 246 246 246 245 245 244 245
288 282 276 271 267 261 260 259 259 259 258 257 255 254 253 253 253 252 251 249 247 247 247 247 247 247 246 246 247 247 246 246 246 246 246 246 246 246 246 247 247 247 247 246
297 288 281 276 273 270 266 264 264 263 261 259 257 256 254 253 253 252 252 252 251 250 249 248 248 248 248 248 248 248 248 248 248 248 249 248 249 249 249 248 248 248 247 247
304 296 289 284 279 275 272 268 266 265 264 262 261 259 258 258 257 255 254 254 253 252 251 250 249 250 250 249 248 249 249 249 249 250 250 250 250 250 251 250 251 250 249 249
314 306 299 293 288 285 280 278 277 274 272 269 265 262 260 259 258 257 257 256 255 254 253 253 252 251 249 249 249 250 250 250 250 250 250 250 250 250 251 251 251 251 252 250